Weather History for Milan, Italy

Change the Weather History Date:

Saturday, February 16, 2013

  Actual Average Record
Temperature  
Mean Temperature 34 °F -  
Max Temperature 48 °F 52 °F 64 °F (1998)
Min Temperature 19 °F 31 °F 14 °F (1999)
Degree Days  
Heating Degree Days 32    
Moisture  
Dew Point 25 °F    
Average Humidity 75    
Maximum Humidity 100    
Minimum Humidity 46    
Precipitation  
Precipitation 0.00 in 0.12 in - ()
Sea Level Pressure  
Sea Level Pressure 30.12 in    
Wind  
Wind Speed 2 mph ()    
Max Wind Speed 4 mph    
Max Gust Speed -    
Visibility 3.7 miles    
Events Fog    
Averages and records for this station are not official NWS values.
T = Trace of Precipitation, MM = Missing Value Source: Averaged Metar Reports

Daily Weather History Graph

Daily Weather History Graph

Search for Another Location

Airport:

Trip Planner

Search our weather history database for the weather conditions in past years. The results will help you decide how hot, cold, wet, or windy it might be!

Date:

Astronomy

Feb. 16, 2013 Rise Set
Actual Time 7:25 AM CET 5:53 PM CET
Civil Twilight 6:55 AM CET 6:23 PM CET
Nautical Twilight 6:20 AM CET 6:58 PM CET
Astronomical Twilight 5:46 AM CET 7:33 PM CET
Moon 10:06 AM CET (2/16) No Moon Set
Length of Visible Light 11h 28m
Length of Day
10h 27m
Waxing Crescent, 37% of the Moon is Illuminated
Feb 16
Waxing Crescent
Feb 17
First Quarter
Feb 25
Full
Mar 4
Last Quarter
Mar 11
New

Hourly Weather History & Observations

Time (CET) Temp. Windchill Dew Point Humidity Pressure Visibility Wind Dir Wind Speed Gust Speed Precip Events Conditions
12:20 AM 24.8 °F - 23.0 °F 93% 30.09 in - Variable 1.2 mph - N/A   Clear
12:50 AM 24.8 °F - 21.2 °F 86% 30.09 in - Variable 1.2 mph - N/A   Clear
1:20 AM 24.8 °F - 23.0 °F 93% 30.09 in 5.0 mi Variable 2.3 mph - N/A   Unknown
1:50 AM 23.0 °F 18.4 °F 19.4 °F 86% 30.09 in 5.0 mi WNW 3.5 mph - N/A   Unknown
2:20 AM 23.0 °F - 19.4 °F 86% 30.09 in 4.3 mi Variable 1.2 mph - N/A   Unknown
2:50 AM 23.0 °F - 21.2 °F 93% 30.09 in 4.3 mi Calm Calm - N/A   Unknown
3:20 AM 21.2 °F - 19.4 °F 93% 30.09 in 3.1 mi Variable 2.3 mph - N/A   Mist
3:50 AM 23.0 °F - 21.2 °F 93% 30.09 in 2.8 mi Variable 2.3 mph - N/A   Mist
4:20 AM 23.0 °F - 23.0 °F 100% 30.09 in 2.8 mi Variable 2.3 mph - N/A   Mist
4:50 AM 21.2 °F - 19.4 °F 93% 30.09 in 2.8 mi Variable 2.3 mph - N/A   Mist
5:20 AM 21.2 °F - 19.4 °F 93% 30.09 in 2.8 mi Variable 2.3 mph - N/A   Mist
5:50 AM 23.0 °F - 19.4 °F 86% 30.09 in 2.8 mi Variable 2.3 mph - N/A   Mist
6:20 AM 19.4 °F - 17.6 °F 93% 30.09 in 2.5 mi Variable 2.3 mph - N/A   Mist
6:50 AM 26.6 °F - 24.8 °F 93% 30.12 in 2.5 mi Variable 2.3 mph - N/A   Mist
7:20 AM 24.8 °F 20.5 °F 19.4 °F 80% 30.12 in 3.1 mi North 3.5 mph - N/A   Mist
7:50 AM 26.6 °F 22.6 °F 21.2 °F 80% 30.12 in 3.1 mi North 3.5 mph - N/A Fog Shallow Fog
8:20 AM 28.4 °F 24.6 °F 24.8 °F 86% 30.12 in 3.1 mi North 3.5 mph - N/A Fog Shallow Fog
8:50 AM 30.2 °F - 26.6 °F 86% 30.15 in 1.9 mi Variable 2.3 mph - N/A Fog Shallow Fog
9:20 AM 33.8 °F 30.8 °F 28.4 °F 81% 30.15 in 1.9 mi West 3.5 mph - N/A Fog Shallow Fog
9:50 AM 37.4 °F - 28.4 °F 70% 30.15 in 1.9 mi Variable 2.3 mph - N/A   Scattered Clouds
10:20 AM 42.8 °F - 28.4 °F 57% 30.15 in 1.9 mi Variable 2.3 mph - N/A   Scattered Clouds
10:50 AM 42.8 °F 41.1 °F 26.6 °F 53% 30.15 in 1.9 mi Variable 3.5 mph - N/A   Partly Cloudy
11:20 AM 44.6 °F - 28.4 °F 53% 30.15 in 2.5 mi Variable 2.3 mph - N/A   Mist
11:50 AM 46.4 °F 45.2 °F 28.4 °F 50% 30.15 in 3.1 mi SSE 3.5 mph - N/A   Mist
12:20 PM 46.4 °F 45.2 °F 28.4 °F 50% 30.15 in 3.1 mi SSE 3.5 mph - N/A   Mist
12:50 PM 46.4 °F 45.2 °F 28.4 °F 50% 30.15 in 4.3 mi SSE 3.5 mph - N/A   Unknown
1:20 PM 48.2 °F - 28.4 °F 46% 30.12 in 4.3 mi SSE 3.5 mph - N/A   Unknown
1:50 PM 48.2 °F - 28.4 °F 46% 30.12 in 3.7 mi SSE 3.5 mph - N/A   Unknown
2:20 PM 48.2 °F - 28.4 °F 46% 30.12 in 3.7 mi SE 3.5 mph - N/A   Unknown
2:50 PM 48.2 °F - 28.4 °F 46% 30.12 in 4.3 mi SE 3.5 mph - N/A   Unknown
3:20 PM 48.2 °F - 30.2 °F 50% 30.12 in 4.3 mi SSE 3.5 mph - N/A   Unknown
3:50 PM 48.2 °F - 32.0 °F 54% 30.12 in 4.3 mi Variable 2.3 mph - N/A   Unknown
4:20 PM 48.2 °F - 32.0 °F 54% 30.12 in 3.7 mi Variable 2.3 mph - N/A   Unknown
4:50 PM 46.4 °F - 32.0 °F 57% 30.12 in 3.7 mi South 2.3 mph - N/A   Unknown
5:20 PM 44.6 °F - 30.2 °F 57% 30.09 in 3.7 mi Variable 2.3 mph - N/A   Unknown
5:50 PM 44.6 °F - 30.2 °F 57% 30.12 in 3.7 mi Variable 2.3 mph - N/A   Unknown
6:20 PM 41.0 °F - 28.4 °F 61% 30.12 in 3.7 mi Variable 2.3 mph - N/A   Unknown
6:50 PM 39.2 °F - 30.2 °F 70% 30.12 in 4.3 mi Variable 1.2 mph - N/A   Unknown
7:20 PM 33.8 °F - 26.6 °F 75% 30.12 in 5.0 mi Variable 2.3 mph - N/A   Unknown
7:50 PM 32.0 °F 28.7 °F 26.6 °F 80% 30.12 in 5.0 mi WNW 3.5 mph - N/A   Unknown
8:20 PM 32.0 °F 28.7 °F 30.2 °F 93% 30.12 in 5.0 mi WNW 3.5 mph - N/A   Unknown
8:50 PM 28.4 °F 24.6 °F 26.6 °F 93% 30.12 in 5.0 mi WNW 3.5 mph - N/A   Unknown
9:20 PM 28.4 °F - 26.6 °F 93% 30.12 in 5.0 mi Variable 1.2 mph - N/A   Unknown
9:50 PM 26.6 °F - 24.8 °F 93% 30.12 in 5.0 mi Calm Calm - N/A   Unknown
10:20 PM 28.4 °F 24.6 °F 24.8 °F 86% 30.12 in 5.0 mi West 3.5 mph - N/A   Unknown
10:50 PM 24.8 °F - 21.2 °F 86% 30.12 in 5.0 mi Variable 2.3 mph - N/A   Unknown
11:20 PM 24.8 °F - 23.0 °F 93% 30.12 in 5.0 mi Variable 2.3 mph - N/A   Unknown
11:50 PM 24.8 °F - 24.8 °F 100% 30.12 in 5.6 mi Variable 1.2 mph - N/A   Unknown